Dewpoint
60 61 60 60 60 59 59 59 58 58 58 59 60 60 58 55 49 38 33 44 54 61 61 38 30 33 33 34 34 35 23 24 27 26 27 27 26 27 25 24 24 23 23 23 23
60 61 60 60 59 59 58 58 58 58 59 60 59 58 58 56 35 30 48 57 58 52 33 28 25 27 29 32 30 30 23 27 27 26 26 26 25 25 23 23 22 22 22 23 22
59 60 60 59 59 58 57 57 57 58 59 59 58 57 58 51 29 27 46 49 53 46 31 28 27 27 30 30 28 28 27 26 24 25 26 25 23 24 23 23 23 23 22 22 21
59 59 60 59 58 58 57 58 58 59 59 57 57 56 53 36 23 28 39 43 42 34 29 25 23 26 27 26 27 24 26 26 26 25 25 24 24 22 23 25 24 24 23 22 21
59 59 59 59 58 57 57 57 58 58 57 55 55 54 36 25 27 28 34 32 31 30 28 24 21 26 24 25 25 24 24 24 24 23 24 24 23 23 23 24 23 23 22 22 21
59 59 59 58 57 57 57 56 55 54 54 53 53 48 30 23 30 29 27 28 30 26 26 26 24 25 24 24 25 25 24 23 23 23 22 23 23 22 23 24 22 22 22 22 21
59 59 58 57 57 57 53 52 52 52 51 51 49 35 26 27 29 30 30 28 28 28 28 27 26 25 25 24 24 23 22 22 22 23 22 23 21 21 23 22 21 21 22 22 22
58 58 58 57 54 52 52 51 50 49 47 46 47 32 26 29 30 29 30 28 29 29 28 28 28 27 26 25 23 23 23 20 23 22 22 21 16 23 22 21 21 21 21 22 22
58 58 56 54 53 52 50 48 46 42 40 38 28 26 24 29 27 28 30 28 27 27 28 29 29 27 26 22 21 23 11 14 22 23 21 21 19 23 21 21 21 20 20 21 22
56 55 53 53 53 50 45 44 43 38 33 27 24 23 25 24 28 28 28 28 25 25 24 23 22 18 16 14 9 7 7 9 12 22 21 20 19 20 21 20 21 21 20 20 20
55 53 53 52 50 47 40 32 28 24 26 26 26 24 24 25 27 25 27 26 23 21 18 16 13 11 13 15 15 14 11 10 12 23 21 19 19 19 21 21 21 21 20 20 20
53 52 50 50 48 46 42 30 37 38 23 26 25 25 27 26 23 24 27 21 20 16 19 18 15 18 18 17 14 13 12 12 15 21 19 18 18 19 20 21 22 21 21 20 20
51 50 49 46 45 42 38 41 45 37 23 24 25 24 26 27 23 23 26 23 17 15 13 15 19 21 19 14 12 11 12 13 14 17 18 19 18 19 20 22 22 22 22 22 21
50 50 48 43 37 38 38 46 45 39 19 21 23 25 26 26 24 26 25 25 21 16 18 18 20 18 16 12 15 13 18 17 17 18 14 18 13 18 18 19 20 21 22 22 22
48 49 48 45 36 34 44 44 42 32 15 22 24 28 26 25 26 27 26 25 20 19 23 21 17 14 11 14 18 16 21 18 19 17 17 18 15 17 17 16 17 20 20 22 22
49 46 47 44 40 44 44 40 34 23 16 21 25 24 22 24 25 25 23 26 25 21 21 21 23 20 19 19 19 20 17 19 20 18 16 15 14 13 15 14 16 18 19 20 21
48 47 44 43 38 43 41 34 24 16 24 20 21 23 21 20 22 22 18 19 19 16 18 21 22 21 20 16 19 18 17 15 15 14 11 16 14 14 18 17 17 17 18 19 20
47 47 46 45 44 42 36 26 19 20 20 25 24 23 19 22 22 22 21 17 21 20 12 10 12 21 20 16 16 16 17 12 10 7 9 15 14 14 17 17 17 17 17 18 19
45 43 43 47 46 40 30 20 17 23 22 23 24 20 18 22 22 23 20 17 19 20 14 8 9 21 21 18 16 18 16 16 14 13 13 12 13 15 17 17 16 16 17 18 19
42 39 40 47 45 39 27 20 22 25 26 25 21 20 17 20 21 21 20 22 22 21 21 16 9 19 22 19 17 17 15 15 15 12 9 6 9 13 17 17 19 18 18 19 20
45 34 44 45 42 31 23 21 25 29 29 25 23 21 22 22 22 21 18 24 24 23 21 18 14 17 20 19 17 14 14 14 16 15 12 7 8 14 16 17 18 19 19 19 20
45 30 45 44 30 28 24 24 29 29 31 30 29 25 23 24 22 21 20 22 24 23 18 18 17 12 13 17 16 18 15 14 13 13 14 14 11 17 18 19 18 18 18 18 19
38 35 45 46 26 26 28 29 30 29 29 29 29 29 27 25 23 23 25 26 26 22 20 20 16 13 16 17 16 15 16 15 15 15 12 11 8 17 16 17 17 18 19 19 18
43 33 38 39 37 29 24 25 25 33 30 30 29 29 28 26 26 24 26 26 24 24 25 22 20 17 13 17 16 15 16 15 15 12 12 13 13 14 16 16 17 19 21 19 18
43 35 37 32 32 31 29 27 27 27 32 31 29 28 26 24 25 26 26 27 26 28 24 23 21 19 18 17 17 15 15 15 14 14 12 10 12 15 16 16 17 19 19 19 18
41 39 40 35 34 34 31 26 27 26 29 28 28 27 27 25 24 22 27 26 25 28 23 24 20 20 17 18 17 17 18 18 16 14 14 15 15 17 17 17 18 19 19 18 18
43 44 41 36 35 32 29 29 29 29 28 29 29 28 28 28 27 29 29 29 28 26 24 24 22 20 16 17 17 14 17 17 17 17 15 13 15 18 19 19 21 22 22 19 19
Wind_Speed
3 3 2 2 2 1 3 4 6 8 10 12 15 17 17 18 17 1 11 12 10 18 7 7 3 2 6 5 7 3 3 6 5 9 8 13 8 5 1 5 9 5 1 4 21
2 2 1 2 2 2 2 4 6 9 11 13 15 15 16 16 8 15 11 16 12 11 6 6 5 4 5 4 4 4 1 4 3 6 9 15 7 10 6 8 10 8 4 13 19
2 2 3 2 2 1 3 5 7 9 11 14 15 15 14 8 5 9 24 21 13 10 5 4 3 2 6 6 7 6 3 9 4 2 8 12 7 9 7 9 11 13 13 18 18
2 4 2 3 1 2 3 7 9 10 10 12 15 16 14 5 1 12 23 18 11 8 8 6 5 1 3 5 3 6 5 3 6 5 8 10 6 7 14 1 5 5 18 20 18
3 2 1 2 1 4 4 6 9 11 11 13 14 13 7 4 7 15 15 12 5 4 5 4 2 5 5 6 9 10 7 8 9 6 5 5 7 8 12 8 2 12 18 18 16
1 1 1 1 2 5 6 8 8 12 13 12 13 12 7 1 3 12 13 10 9 7 12 4 6 12 11 5 5 7 10 11 7 7 5 5 5 3 8 10 10 15 17 17 16
1 1 0 1 3 6 7 8 11 12 11 10 12 7 9 6 3 6 7 12 15 4 5 7 5 3 7 8 10 14 8 6 7 6 2 5 13 16 6 12 15 17 17 16 16
1 0 2 4 5 6 9 9 9 8 9 9 9 8 4 2 4 3 3 7 9 10 14 11 12 10 4 14 7 4 4 6 12 8 4 4 10 10 11 16 17 18 17 17 17
0 2 4 6 8 9 10 8 4 6 5 8 5 6 4 3 2 6 5 5 3 3 5 3 4 6 6 4 5 5 6 3 7 10 3 10 10 9 12 14 16 17 18 18 17
2 5 7 8 11 13 11 5 5 3 2 3 2 3 4 2 3 5 3 5 4 3 3 2 2 4 3 4 6 8 7 3 6 6 9 13 21 16 15 17 17 17 18 18 18
4 6 8 11 12 12 8 6 5 5 9 5 5 2 3 2 3 1 3 6 6 7 5 1 7 5 4 5 5 6 7 8 5 4 7 14 19 16 12 17 17 18 18 19 20
5 7 9 12 11 9 7 4 3 4 3 3 2 1 2 3 4 4 9 5 4 5 4 7 4 3 2 2 4 5 8 6 1 1 5 15 22 15 7 17 18 19 19 19 18
6 7 10 12 9 4 7 4 4 5 4 3 1 1 1 4 2 5 9 3 4 2 4 5 6 3 1 2 6 4 7 7 8 14 11 15 7 4 2 3 10 16 18 17 18
8 7 9 7 0 2 3 2 4 3 5 6 3 2 2 2 4 3 5 3 3 3 3 3 4 2 2 2 4 8 3 5 10 9 5 5 6 6 5 4 10 12 16 18 17
10 8 7 8 3 1 2 4 2 2 4 2 3 2 0 4 3 2 1 4 4 1 3 4 3 3 5 1 2 4 3 7 7 7 8 3 5 6 3 2 5 9 12 14 15
10 13 7 2 3 2 3 2 1 4 2 2 1 1 4 3 1 3 2 1 1 3 1 2 1 2 1 2 4 5 5 7 4 5 5 4 4 3 0 1 5 6 6 8 12
8 8 4 4 2 4 2 3 5 6 2 2 1 2 4 3 2 2 3 5 4 6 8 4 5 3 2 4 5 7 11 3 4 4 5 3 4 10 3 5 6 6 6 7 10
5 3 5 4 4 4 3 5 5 2 1 1 1 3 5 2 4 2 4 9 4 5 7 6 5 5 2 2 3 3 5 3 3 5 9 3 6 0 4 4 6 8 7 8 11
5 2 2 3 3 4 4 8 4 1 1 1 3 6 6 5 3 4 6 7 0 2 4 4 3 3 3 1 2 2 2 3 4 2 5 5 7 11 7 8 11 12 11 12 14
4 3 3 3 2 3 6 10 2 1 2 1 4 3 6 3 4 4 5 3 4 2 1 2 5 3 3 2 1 3 2 3 3 4 6 8 11 12 11 7 7 10 13 12 14
3 5 4 3 3 6 12 12 3 3 4 5 4 5 7 3 9 6 4 3 3 4 2 2 3 4 2 8 5 4 4 3 2 3 5 8 8 5 8 5 7 7 7 10 15
3 5 2 2 8 5 14 7 1 4 5 6 5 8 8 4 6 6 6 2 3 6 3 2 4 8 3 3 2 3 5 9 5 3 6 5 14 4 6 5 7 10 9 7 12
4 5 0 3 10 15 7 4 5 6 7 5 6 9 3 5 6 9 4 2 4 5 2 3 6 5 4 3 2 6 9 11 5 2 14 8 9 5 4 8 11 13 12 9 11
4 4 4 5 4 9 11 15 12 5 6 6 4 4 5 8 9 4 6 3 5 4 1 2 5 12 13 4 2 6 11 16 14 9 10 21 26 30 21 17 17 12 9 10 13
4 3 3 5 13 15 9 3 10 7 8 8 5 17 10 7 7 9 10 5 6 7 5 4 7 9 16 15 13 14 16 19 27 27 13 21 19 28 26 25 21 8 6 9 14
5 5 1 6 3 8 13 15 17 14 8 8 14 5 18 13 11 3 7 9 7 11 9 6 5 3 9 7 8 17 20 24 27 28 28 30 36 33 27 12 11 11 11 13 16
0 2 4 2 4 8 14 12 9 7 11 11 11 13 13 20 8 0 2 3 2 6 14 8 5 3 9 1 9 18 25 29 15 14 28 20 18 14 10 15 17 14 12 15 16
Wind_Direction
176 151 143 115 142 95 2 359 341 346 339 330 322 318 332 335 312 107 35 325 306 316 301 275 215 153 61 59 30 304 185 147 144 174 146 157 155 164 80 140 198 176 275 75 144
122 114 141 186 122 47 7 328 346 347 331 330 326 327 335 339 314 51 359 347 341 332 293 325 349 3 62 42 16 351 138 103 51 86 164 170 183 169 181 190 207 196 155 144 153
73 203 194 145 70 342 5 324 347 335 332 334 326 331 329 322 279 24 357 347 340 320 319 308 298 30 69 49 11 12 74 129 96 63 153 161 184 174 213 221 223 209 174 160 168
226 205 174 93 51 29 349 330 339 325 335 334 330 332 321 253 360 356 346 330 324 310 283 279 270 40 73 64 42 101 72 92 121 114 137 165 177 214 224 21 353 190 165 169 180
216 181 121 87 38 337 319 339 330 326 340 334 329 336 299 91 30 352 338 0 313 302 320 285 4 105 109 104 77 92 118 102 114 130 151 157 200 235 237 221 193 145 164 178 187
170 151 89 97 31 309 334 331 331 330 330 336 326 332 258 111 352 15 19 30 18 64 54 59 87 99 92 75 37 119 124 123 140 143 160 218 238 260 218 170 176 167 181 188 194
137 100 266 320 334 313 331 329 332 328 333 335 331 317 57 80 3 349 13 37 35 20 85 55 74 275 126 105 118 134 120 150 177 179 201 267 249 231 221 175 184 188 192 197 198
131 84 298 317 321 328 322 322 325 328 331 331 313 275 70 77 351 33 330 58 55 66 82 82 90 78 74 120 137 195 201 228 156 175 147 214 295 176 158 184 192 197 200 203 205
42 327 320 323 326 324 315 318 320 320 311 312 279 295 116 129 271 341 350 334 3 66 75 111 77 99 148 198 182 197 317 290 162 198 168 215 286 143 175 198 204 206 211 209 214
5 329 328 333 332 321 314 274 285 274 259 279 275 212 150 58 335 319 316 304 293 252 221 236 181 150 158 287 349 342 314 322 300 163 221 248 262 266 196 203 222 218 218 219 218
342 340 339 332 328 326 311 252 213 164 48 36 0 359 76 52 239 308 340 298 255 254 280 275 255 46 58 24 348 317 304 301 317 110 273 269 279 282 214 210 225 231 224 225 223
349 350 342 330 323 329 300 14 32 353 92 79 23 67 13 335 271 51 344 273 286 284 269 226 89 89 96 16 312 304 308 334 54 73 285 307 299 296 278 217 221 231 232 227 225
353 350 342 330 322 347 66 59 335 326 273 145 76 343 347 313 318 341 346 307 307 277 343 4 96 132 244 288 321 303 305 324 310 316 260 299 256 164 135 265 211 231 239 236 227
1 354 351 338 45 74 57 10 337 339 262 149 177 134 204 303 240 356 5 313 214 295 325 68 129 179 217 271 322 310 38 307 305 313 349 343 324 131 148 197 211 226 228 232 231
13 357 339 13 53 13 34 338 26 253 281 104 140 31 61 260 341 148 339 248 289 216 244 95 179 198 235 280 310 346 323 298 296 284 309 175 269 116 166 183 202 213 220 223 225
5 3 330 300 90 65 316 321 267 237 246 135 209 211 238 225 233 307 239 157 344 253 213 104 121 259 9 236 245 313 277 239 256 256 237 106 351 266 12 301 211 207 224 229 214
0 20 27 327 48 344 293 256 257 248 138 146 249 250 264 245 226 297 266 227 264 257 204 175 193 150 219 252 227 252 280 238 218 221 336 141 277 263 183 211 244 255 242 229 208
339 330 46 54 350 318 253 255 253 49 311 119 255 244 243 206 207 240 250 241 208 254 285 264 228 191 137 318 328 326 316 360 298 313 301 154 240 9 141 178 212 229 237 229 208
304 198 164 26 357 287 249 244 295 21 48 244 234 245 219 214 259 246 238 269 214 223 257 274 201 132 70 327 309 128 259 7 284 231 274 232 264 241 193 239 231 232 220 223 211
272 250 190 341 312 259 244 245 277 130 155 231 255 227 275 198 229 213 221 149 192 189 270 38 261 181 122 232 193 275 97 254 186 299 289 291 297 262 222 252 224 240 238 230 214
252 248 81 319 255 225 238 238 256 201 199 218 271 262 245 259 240 252 275 159 200 168 220 289 244 135 172 206 189 162 202 211 302 256 271 299 284 13 259 282 267 277 272 237 214
275 236 49 241 208 233 237 237 48 214 199 235 264 255 250 219 246 243 251 239 156 179 202 164 291 255 226 111 353 294 245 203 238 188 240 274 272 214 240 257 259 272 284 254 224
252 256 119 270 226 220 221 244 243 208 216 204 237 232 228 236 240 230 239 111 169 200 234 157 220 249 200 195 204 232 213 222 241 270 246 255 264 145 229 252 255 260 261 248 220
287 254 194 211 279 262 237 245 234 217 234 213 247 221 214 232 225 256 231 176 183 192 201 182 261 252 275 357 38 206 209 210 207 230 247 234 269 287 296 307 316 299 239 233 209
234 256 341 226 231 229 240 277 228 221 219 213 236 225 214 242 224 231 220 180 192 181 188 222 264 274 271 280 258 256 249 211 215 227 240 265 277 281 295 303 304 307 269 225 213
294 302 248 277 279 219 222 242 243 234 194 223 231 237 224 235 226 287 202 206 212 182 191 192 255 292 284 261 260 258 252 239 229 242 253 264 275 279 281 282 284 277 258 236 225
225 229 282 289 245 230 233 249 261 255 233 249 239 236 230 236 245 34 14 337 207 185 191 188 221 238 273 275 298 280 251 222 212 220 224 241 241 267 275 283 285 285 272 244 232